View from above orbital plane
|
View from above satellite
|
Ground track
|
The orbit data is extracted from the following two-line orbital elements,
1 15752U 85041B 13142.08440507 -.00000015 00000-0 -32865-4 0 309
2 15752 082.9481 323.5153 0022792 306.6145 203.2719 13.72972291401791
| Epoch (UTC): | 22 May 2013 02:01:32 |
| Eccentricity: | 0.0022792 |
| inclination: | 82.9481° |
| perigee height: | 972 km |
| apogee height: | 1006 km |
| right ascension of ascending node: | 323.5153° |
| argument of perigee: | 306.6145° |
| revolutions per day: | 13.72972291 |
| mean anomaly at epoch: | 203.2719° |
| orbit number at epoch: | 40179 |
The dashed part of the orbit path shows where the satellite is in the earth's shadow,
|
|